Project,Study,Ord_Occ,Event_Num,Cast_ID,Date_Time_UTC,Date_Time_PST,Lat_Dec,Lon_Dec,Sta_ID,Line,Sta,Depth,Pressure,PrQ,Temp1,Temp1Q,Temp2,Temp2Q,TempAve,Salt1,Salt1Q,Salt1_Corr,Salt2,Salt2Q,Salt2_Corr,SaltAve_Corr,Ox1,Ox1Q,Ox1_CruiseCorr,Ox1_StaCorr,Ox2,Ox2Q,Ox2_CruiseCorr,Ox2_StaCorr,OxAve_StaCorr,Ox1uM,Ox1uM_CruiseCorr,Ox1uM_StaCorr,Ox2uM,Ox2uM_CruiseCorr,Ox2uM_StaCorr,OxAveuM_StaCorr,FluorV,FluorQ,EstChl_CruiseCorr,EstChl_StaCorr,ISUSV,ISUSQ,EstNO3_CruiseCorr,EstNO3_StaCorr,SigThetaTS1,SigThetaTS1Q,SigThetaTS2,SigThetaTS2Q,BAT,XMiss,TransQ,pH,pHQ,SPAR,SPARQ,PAR,PARQ,PoT1,PoT2,DynHt,SVA,OxSat1,OxSat2,BTL_Depth,BTL_Temp,SaltB,OxB,OxBuM,Chl-a,Phaeo,NO3,NO2,NH4,PO4,SIL
CalCOFI,2101RL,029,,2101_029u,22-Jan-2021 21:14:20,22-Jan-2021 13:14:20,33.41766,-117.90294,090.0 030.0,090.0,030.0,517.000,521.346,,6.7238,,6.7259,,6.7249,34.2877,,34.2935,34.2841,,34.2861,34.2898,0.3841,,0.4019,0.4216,0.3915,,0.4138,0.4362,0.4289,16.703,17.7449,33.4749,17.027,19.0264,33.5324,33.5037,0.0326,,,, ,, , ,26.9018,,26.8987,,0.7106,83.7247,,,,1.6823E+03,,1.0000E-12,,6.6754,6.6776,0.9402,122.234,5.627,5.736,,,,,,,,,,,,
CalCOFI,2101RL,029,,2101_029u,22-Jan-2021 21:14:34,22-Jan-2021 13:14:34,33.41770,-117.90291,090.0 030.0,090.0,030.0,516.000,520.335,,6.7300,,6.7307,,6.7304,34.2872,,34.2930,34.2838,,34.2858,34.2894,0.3862,,0.4041,0.4237,0.3916,,0.4139,0.4363,0.4300,16.796,17.8423,33.5456,17.033,19.1298,33.5371,33.5414,0.0324,,,, ,, , ,26.9005,,26.8977,,0.7069,83.8011,,,,1.6296E+03,,1.0000E-12,,6.6817,6.6824,0.9402,122.342,5.659,5.739,516,,34.2756,0.424,18.48,,,,,,,
CalCOFI,2101RL,029,,2101_029u,22-Jan-2021 21:14:36,22-Jan-2021 13:14:36,33.41770,-117.90292,090.0 030.0,090.0,030.0,515.000,519.326,,6.7331,,6.7337,,6.7334,34.2870,,34.2928,34.2835,,34.2855,34.2892,0.3882,,0.4062,0.4257,0.3918,,0.4141,0.4365,0.4311,16.882,17.9323,33.6110,17.041,19.2255,33.5433,33.5772,0.0324,,,, ,, , ,26.8999,,26.8971,,0.7075,83.7888,,,,1.8874E+03,,1.0000E-12,,6.6850,6.6855,0.9402,122.390,5.688,5.741,,,,,,,,,,,,
CalCOFI,2101RL,029,,2101_029u,22-Jan-2021 21:14:38,22-Jan-2021 13:14:38,33.41770,-117.90292,090.0 030.0,090.0,030.0,514.000,518.316,,6.7338,,6.7349,,6.7344,34.2870,,34.2928,34.2834,,34.2854,34.2891,0.3897,,0.4078,0.4273,0.3971,,0.4198,0.4419,0.4346,16.947,18.0003,33.6604,17.269,19.2977,33.7197,33.6901,0.0324,,,, ,, , ,26.8998,,26.8969,,0.7067,83.8040,,,,1.8990E+03,,1.0000E-12,,6.6857,6.6868,0.9402,122.383,5.710,5.818,,,,,,,,,,,,
CalCOFI,2101RL,029,,2101_029u,22-Jan-2021 21:14:39,22-Jan-2021 13:14:39,33.41769,-117.90291,090.0 030.0,090.0,030.0,513.000,517.307,,6.7357,,6.7387,,6.7372,34.2868,,34.2926,34.2831,,34.2851,34.2889,0.3900,,0.4081,0.4276,0.3924,,0.4148,0.4371,0.4324,16.960,18.0139,33.6703,17.066,19.3122,33.5626,33.6165,0.0323,,,, ,, , ,26.8994,,26.8961,,0.7064,83.8102,,,,1.8567E+03,,1.0000E-12,,6.6877,6.6907,0.9402,122.406,5.715,5.751,,,,,,,,,,,,
CalCOFI,2101RL,029,,2101_029u,22-Jan-2021 21:14:40,22-Jan-2021 13:14:40,33.41768,-117.90290,090.0 030.0,090.0,030.0,512.000,516.297,,6.7397,,6.7477,,6.7437,34.2864,,34.2922,34.2827,,34.2847,34.2885,0.3968,,0.4152,0.4345,0.4008,,0.4237,0.4458,0.4402,17.256,18.3238,33.8952,17.430,19.6414,33.8443,33.8698,0.0330,,,, ,, , ,26.8986,,26.8946,,0.7066,83.8065,,,,1.7860E+03,,1.0000E-12,,6.6918,6.6998,0.9402,122.477,5.815,5.874,,,,,,,,,,,,
CalCOFI,2101RL,029,,2101_029u,22-Jan-2021 21:14:41,22-Jan-2021 13:14:41,33.41768,-117.90290,090.0 030.0,090.0,030.0,511.000,515.287,,6.7478,,6.7555,,6.7517,34.2860,,34.2918,34.2822,,34.2842,34.2880,0.3935,,0.4117,0.4312,0.3995,,0.4223,0.4444,0.4378,17.113,18.1741,33.7866,17.375,19.4823,33.8017,33.7942,0.0324,,,, ,, , ,26.8971,,26.8931,,0.7063,83.8119,,,,1.7345E+03,,1.0000E-12,,6.7000,6.7077,0.9402,122.606,5.768,5.857,,,,,,,,,,,,
CalCOFI,2101RL,029,,2101_029u,22-Jan-2021 21:14:43,22-Jan-2021 13:14:43,33.41768,-117.90289,090.0 030.0,090.0,030.0,510.000,514.278,,6.7569,,6.7604,,6.7587,34.2855,,34.2913,34.2819,,34.2839,34.2876,0.3994,,0.4179,0.4372,0.4085,,0.4319,0.4537,0.4455,17.370,18.4431,33.9819,17.766,19.7681,34.1043,34.0431,0.0332,,,, ,, , ,26.8955,,26.8922,,0.7062,83.8150,,,,1.7483E+03,,1.0000E-12,,6.7091,6.7126,0.9402,122.758,5.856,5.989,,,,,,,,,,,,
CalCOFI,2101RL,029,,2101_029u,22-Jan-2021 21:14:44,22-Jan-2021 13:14:44,33.41768,-117.90288,090.0 030.0,090.0,030.0,509.000,513.268,,6.7617,,6.7648,,6.7633,34.2851,,34.2909,34.2815,,34.2835,34.2872,0.3994,,0.4179,0.4372,0.4052,,0.4284,0.4503,0.4438,17.370,18.4431,33.9819,17.623,19.7681,33.9937,33.9878,0.0329,,,, ,, , ,26.8946,,26.8913,,0.7058,83.8235,,,,1.7601E+03,,1.0000E-12,,6.7140,6.7171,0.9402,122.834,5.856,5.942,,,,,,,,,,,,
CalCOFI,2101RL,029,,2101_029u,22-Jan-2021 21:14:45,22-Jan-2021 13:14:45,33.41768,-117.90288,090.0 030.0,090.0,030.0,508.000,512.258,,6.7647,,6.7693,,6.7670,34.2849,,34.2907,34.2812,,34.2832,34.2870,0.4051,,0.4239,0.4430,0.4055,,0.4287,0.4506,0.4468,17.617,18.7017,34.1696,17.636,20.0428,34.0037,34.0867,0.0328,,,, ,, , ,26.8940,,26.8905,,0.7055,83.8302,,,,1.7244E+03,,1.0000E-12,,6.7171,6.7217,0.9402,122.877,5.940,5.947,,,,,,,,,,,,
CalCOFI,2101RL,029,,2101_029u,22-Jan-2021 21:14:46,22-Jan-2021 13:14:46,33.41768,-117.90288,090.0 030.0,090.0,030.0,507.000,511.249,,6.7781,,6.7819,,6.7800,34.2841,,34.2899,34.2806,,34.2826,34.2863,0.4075,,0.4264,0.4454,0.4064,,0.4296,0.4516,0.4485,17.722,18.8116,34.2494,17.672,20.1596,34.0316,34.1405,0.0320,,,, ,, , ,26.8915,,26.8882,,0.7055,83.8301,,,,1.6639E+03,,1.0000E-12,,6.7305,6.7344,0.9402,123.109,5.977,5.961,,,,,,,,,,,,
CalCOFI,2101RL,029,,2101_029u,22-Jan-2021 21:14:47,22-Jan-2021 13:14:47,33.41768,-117.90288,090.0 030.0,090.0,030.0,506.000,510.239,,6.7881,,6.7907,,6.7894,34.2836,,34.2894,34.2802,,34.2822,34.2858,0.4060,,0.4248,0.4439,0.4134,,0.4371,0.4588,0.4514,17.656,18.7425,34.1993,17.979,20.0862,34.2692,34.2343,0.0313,,,, ,, , ,26.8898,,26.8867,,0.7057,83.8250,,,,1.6263E+03,,1.0000E-12,,6.7406,6.7432,0.9402,123.266,5.956,6.065,,,,,,,,,,,,
CalCOFI,2101RL,029,,2101_029u,22-Jan-2021 21:14:48,22-Jan-2021 13:14:48,33.41768,-117.90288,090.0 030.0,090.0,030.0,505.000,509.230,,6.7976,,6.7995,,6.7986,34.2832,,34.2890,34.2798,,34.2818,34.2854,0.4109,,0.4299,0.4489,0.4117,,0.4353,0.4571,0.4530,17.872,18.9686,34.3634,17.903,20.3264,34.2104,34.2869,0.0324,,,, ,, , ,26.8881,,26.8852,,0.7056,83.8270,,,,1.6066E+03,,1.0000E-12,,6.7501,6.7521,0.9402,123.418,6.030,6.041,,,,,,,,,,,,
CalCOFI,2101RL,029,,2101_029u,22-Jan-2021 21:14:48,22-Jan-2021 13:14:48,33.41768,-117.90288,090.0 030.0,090.0,030.0,504.000,508.220,,6.8009,,6.8064,,6.8037,34.2833,,34.2891,34.2794,,34.2814,34.2853,0.4139,,0.4331,0.4520,0.4193,,0.4433,0.4649,0.4585,18.001,19.1036,34.4615,18.234,20.4698,34.4665,34.4640,0.0330,,,, ,, , ,26.8878,,26.8840,,0.7055,83.8301,,,,1.6039E+03,,1.0000E-12,,6.7536,6.7590,0.9402,123.441,6.074,6.153,,,,,,,,,,,,
CalCOFI,2101RL,029,,2101_029u,22-Jan-2021 21:14:49,22-Jan-2021 13:14:49,33.41768,-117.90288,090.0 030.0,090.0,030.0,503.000,507.210,,6.8065,,6.8142,,6.8104,34.2828,,34.2886,34.2791,,34.2811,34.2849,0.4166,,0.4359,0.4547,0.4119,,0.4355,0.4573,0.4560,18.116,19.2240,34.5489,17.912,20.5977,34.2173,34.3831,0.0330,,,, ,, , ,26.8866,,26.8827,,0.7055,83.8301,,,,1.5970E+03,,1.0000E-12,,6.7592,6.7669,0.9402,123.539,6.114,6.046,,,,,,,,,,,,
CalCOFI,2101RL,029,,2101_029u,22-Jan-2021 21:14:50,22-Jan-2021 13:14:50,33.41768,-117.90288,090.0 030.0,090.0,030.0,502.000,506.201,,6.8203,,6.8303,,6.8253,34.2822,,34.2880,34.2784,,34.2804,34.2842,0.4178,,0.4372,0.4560,0.4200,,0.4441,0.4656,0.4608,18.168,19.2785,34.5884,18.268,20.6555,34.4928,34.5406,0.0326,,,, ,, , ,26.8842,,26.8799,,0.7055,83.8301,,,,1.5955E+03,,1.0000E-12,,6.7731,6.7831,0.9402,123.764,6.134,6.168,,,,,,,,,,,,
CalCOFI,2101RL,029,,2101_029u,22-Jan-2021 21:14:51,22-Jan-2021 13:14:51,33.41768,-117.90288,090.0 030.0,090.0,030.0,501.000,505.191,,6.8317,,6.8392,,6.8355,34.2817,,34.2875,34.2782,,34.2802,34.2839,0.4161,,0.4354,0.4542,0.4277,,0.4523,0.4736,0.4639,18.095,19.2020,34.5329,18.602,20.5743,34.7513,34.6421,0.0318,,,, ,, , ,26.8824,,26.8786,,0.7070,83.7984,,,,1.5924E+03,,1.0000E-12,,6.7845,6.7920,0.9402,123.938,6.110,6.282,,,,,,,,,,,,
CalCOFI,2101RL,029,,2101_029u,22-Jan-2021 21:14:52,22-Jan-2021 13:14:52,33.41768,-117.90288,090.0 030.0,090.0,030.0,500.000,504.182,,6.8427,,6.8438,,6.8433,34.2817,,34.2875,34.2780,,34.2800,34.2838,0.4193,,0.4387,0.4575,0.4253,,0.4497,0.4711,0.4643,18.237,19.3507,34.6409,18.495,20.7322,34.6685,34.6547,0.0324,,,, ,, , ,26.8809,,26.8778,,0.7079,83.7807,,,,1.5981E+03,,1.0000E-12,,6.7956,6.7966,0.9402,124.076,6.160,6.247,,,,,,,,,,,,
CalCOFI,2101RL,029,,2101_029u,22-Jan-2021 21:14:53,22-Jan-2021 13:14:53,33.41767,-117.90288,090.0 030.0,090.0,030.0,499.000,503.172,,6.8477,,6.8533,,6.8505,34.2812,,34.2870,34.2777,,34.2797,34.2834,0.4198,,0.4393,0.4580,0.4226,,0.4468,0.4683,0.4632,18.256,19.3706,34.6553,18.379,20.7534,34.5788,34.6171,0.0316,,,, ,, , ,26.8798,,26.8763,,0.7079,83.7800,,,,1.6024E+03,,1.0000E-12,,6.8006,6.8063,0.9402,124.169,6.167,6.209,,,,,,,,,,,,
CalCOFI,2101RL,029,,2101_029u,22-Jan-2021 21:14:54,22-Jan-2021 13:14:54,33.41766,-117.90288,090.0 030.0,090.0,030.0,498.000,502.162,,6.8532,,6.8565,,6.8549,34.2813,,34.2871,34.2775,,34.2795,34.2833,0.4210,,0.4405,0.4592,0.4204,,0.4445,0.4661,0.4627,18.309,19.4261,34.6956,18.285,20.8123,34.5060,34.6008,0.0325,,,, ,, , ,26.8791,,26.8757,,0.7081,83.7769,,,,1.6061E+03,,1.0000E-12,,6.8062,6.8095,0.9402,124.223,6.186,6.178,,,,,,,,,,,,
CalCOFI,2101RL,029,,2101_029u,22-Jan-2021 21:14:55,22-Jan-2021 13:14:55,33.41766,-117.90288,090.0 030.0,090.0,030.0,497.000,501.153,,6.8593,,6.8634,,6.8614,34.2810,,34.2868,34.2775,,34.2795,34.2832,0.4245,,0.4442,0.4628,0.4249,,0.4493,0.4707,0.4668,18.464,19.5883,34.8134,18.479,20.9847,34.6561,34.7348,0.0323,,,, ,, , ,26.8780,,26.8747,,0.7089,83.7595,,,,1.6061E+03,,1.0000E-12,,6.8124,6.8165,0.9402,124.318,6.239,6.244,,,,,,,,,,,,
CalCOFI,2101RL,029,,2101_029u,22-Jan-2021 21:14:56,22-Jan-2021 13:14:56,33.41766,-117.90288,090.0 030.0,090.0,030.0,496.000,500.143,,6.8708,,6.8775,,6.8742,34.2806,,34.2864,34.2769,,34.2789,34.2827,0.4273,,0.4471,0.4657,0.4371,,0.4622,0.4833,0.4745,18.584,19.7139,34.9046,19.012,21.1181,35.0686,34.9866,0.0318,,,, ,, , ,26.8761,,26.8723,,0.7090,83.7566,,,,1.6021E+03,,1.0000E-12,,6.8240,6.8307,0.9402,124.496,6.281,6.426,,,,,,,,,,,,
CalCOFI,2101RL,029,,2101_029u,22-Jan-2021 21:14:57,22-Jan-2021 13:14:57,33.41766,-117.90288,090.0 030.0,090.0,030.0,495.000,499.134,,6.8762,,6.8849,,6.8806,34.2802,,34.2860,34.2766,,34.2786,34.2823,0.4288,,0.4487,0.4672,0.4408,,0.4662,0.4872,0.4772,18.647,19.7799,34.9525,19.171,21.1882,35.1917,35.0721,0.0318,,,, ,, , ,26.8751,,26.8711,,0.7089,83.7594,,,,1.6193E+03,,1.0000E-12,,6.8294,6.8382,0.9402,124.582,6.303,6.481,,,,,,,,,,,,
CalCOFI,2101RL,029,,2101_029u,22-Jan-2021 21:14:58,22-Jan-2021 13:14:58,33.41766,-117.90288,090.0 030.0,090.0,030.0,494.000,498.124,,6.8829,,6.8892,,6.8861,34.2797,,34.2855,34.2762,,34.2782,34.2819,0.4340,,0.4541,0.4725,0.4304,,0.4551,0.4764,0.4745,18.875,20.0186,35.1258,18.717,21.4417,34.8403,34.9831,0.0323,,,, ,, , ,26.8737,,26.8701,,0.7089,83.7594,,,,1.6657E+03,,1.0000E-12,,6.8362,6.8425,0.9402,124.701,6.381,6.328,,,,,,,,,,,,
CalCOFI,2101RL,029,,2101_029u,22-Jan-2021 21:14:59,22-Jan-2021 13:14:59,33.41766,-117.90288,090.0 030.0,090.0,030.0,493.000,497.115,,6.8912,,6.8962,,6.8937,34.2792,,34.2850,34.2758,,34.2778,34.2814,0.4366,,0.4568,0.4752,0.4341,,0.4591,0.4802,0.4777,18.990,20.1389,35.2132,18.880,21.5696,34.9665,35.0899,0.0331,,,, ,, , ,26.8722,,26.8689,,0.7089,83.7594,,,,1.7173E+03,,1.0000E-12,,6.8446,6.8496,0.9402,124.834,6.421,6.384,,,,,,,,,,,,
CalCOFI,2101RL,029,,2101_029u,22-Jan-2021 21:15:00,22-Jan-2021 13:15:00,33.41768,-117.90288,090.0 030.0,090.0,030.0,492.000,496.105,,6.8962,,6.9031,,6.8997,34.2792,,34.2850,34.2755,,34.2775,34.2813,0.4395,,0.4599,0.4781,0.4428,,0.4683,0.4892,0.4837,19.115,20.2698,35.3082,19.261,21.7086,35.2613,35.2848,0.0323,,,, ,, , ,26.8715,,26.8676,,0.7084,83.7692,,,,1.7589E+03,,1.0000E-12,,6.8497,6.8565,0.9402,124.893,6.464,6.514,,,,,,,,,,,,
CalCOFI,2101RL,029,,2101_029u,22-Jan-2021 21:15:01,22-Jan-2021 13:15:01,33.41768,-117.90288,090.0 030.0,090.0,030.0,491.000,495.096,,6.9083,,6.9194,,6.9139,34.2788,,34.2846,34.2748,,34.2768,34.2807,0.4412,,0.4617,0.4799,0.4367,,0.4618,0.4829,0.4814,19.190,20.3483,35.3652,18.995,21.7920,35.0555,35.2104,0.0326,,,, ,, , ,26.8695,,26.8649,,0.7089,83.7593,,,,1.8126E+03,,1.0000E-12,,6.8618,6.8729,0.9402,125.077,6.491,6.426,,,,,,,,,,,,
CalCOFI,2101RL,029,,2101_029u,22-Jan-2021 21:15:01,22-Jan-2021 13:15:01,33.41768,-117.90288,090.0 030.0,090.0,030.0,490.000,494.086,,6.9301,,6.9359,,6.9330,34.2778,,34.2836,34.2743,,34.2763,34.2800,0.4452,,0.4658,0.4839,0.4449,,0.4705,0.4914,0.4877,19.362,20.5283,35.4959,19.347,21.9833,35.3279,35.4119,0.0319,,,, ,, , ,26.8658,,26.8622,,0.7089,83.7594,,,,1.8634E+03,,1.0000E-12,,6.8836,6.8894,0.9402,125.440,6.553,6.548,,,,,,,,,,,,
CalCOFI,2101RL,029,,2101_029u,22-Jan-2021 21:15:02,22-Jan-2021 13:15:02,33.41768,-117.90288,090.0 030.0,090.0,030.0,489.000,493.076,,6.9366,,6.9434,,6.9400,34.2775,,34.2833,34.2740,,34.2760,34.2797,0.4458,,0.4665,0.4845,0.4484,,0.4742,0.4950,0.4898,19.389,20.5566,35.5164,19.502,22.0133,35.4478,35.4821,0.0329,,,, ,, , ,26.8647,,26.8610,,0.7091,83.7551,,,,1.8835E+03,,1.0000E-12,,6.8902,6.8970,0.9402,125.535,6.563,6.602,,,,,,,,,,,,
CalCOFI,2101RL,029,,2101_029u,22-Jan-2021 21:15:03,22-Jan-2021 13:15:03,33.41768,-117.90288,090.0 030.0,090.0,030.0,488.000,492.067,,6.9414,,6.9506,,6.9460,34.2773,,34.2831,34.2738,,34.2758,34.2795,0.4470,,0.4677,0.4858,0.4531,,0.4792,0.4999,0.4929,19.442,20.6121,35.5567,19.706,22.0722,35.6057,35.5812,0.0324,,,, ,, , ,26.8639,,26.8598,,0.7094,83.7487,,,,1.8670E+03,,1.0000E-12,,6.8951,6.9043,0.9402,125.600,6.581,6.672,,,,,,,,,,,,
CalCOFI,2101RL,029,,2101_029u,22-Jan-2021 21:15:04,22-Jan-2021 13:15:04,33.41768,-117.90288,090.0 030.0,090.0,030.0,487.000,491.057,,6.9544,,6.9601,,6.9573,34.2770,,34.2828,34.2733,,34.2753,34.2791,0.4521,,0.4731,0.4910,0.4593,,0.4858,0.5063,0.4987,19.663,20.8434,35.7247,19.977,22.3180,35.8155,35.7701,0.0330,,,, ,, , ,26.8619,,26.8582,,0.7092,83.7535,,,,1.8146E+03,,1.0000E-12,,6.9081,6.9138,0.9402,125.789,6.658,6.765,,,,,,,,,,,,
CalCOFI,2101RL,029,,2101_029u,22-Jan-2021 21:15:05,22-Jan-2021 13:15:05,33.41768,-117.90288,090.0 030.0,090.0,030.0,486.000,490.048,,6.9596,,6.9762,,6.9679,34.2764,,34.2822,34.2728,,34.2748,34.2785,0.4561,,0.4773,0.4951,0.4570,,0.4834,0.5039,0.4995,19.838,21.0266,35.8577,19.876,22.5126,35.7373,35.7975,0.0319,,,, ,, , ,26.8607,,26.8555,,0.7109,83.7154,,,,1.7752E+03,,1.0000E-12,,6.9134,6.9300,0.9402,125.892,6.718,6.733,,,,,,,,,,,,
CalCOFI,2101RL,029,,2101_029u,22-Jan-2021 21:15:06,22-Jan-2021 13:15:06,33.41768,-117.90288,090.0 030.0,090.0,030.0,485.000,489.038,,6.9781,,6.9887,,6.9834,34.2759,,34.2817,34.2722,,34.2742,34.2780,0.4581,,0.4793,0.4971,0.4672,,0.4942,0.5145,0.5058,19.926,21.1187,35.9246,20.320,22.6104,36.0809,36.0028,0.0318,,,, ,, , ,26.8577,,26.8534,,0.7100,83.7359,,,,1.7334E+03,,1.0000E-12,,6.9319,6.9425,0.9402,126.177,6.751,6.886,,,,,,,,,,,,
CalCOFI,2101RL,029,,2101_029u,22-Jan-2021 21:15:07,22-Jan-2021 13:15:07,33.41768,-117.90288,090.0 030.0,090.0,030.0,484.000,488.029,,6.9930,,6.9971,,6.9951,34.2753,,34.2811,34.2719,,34.2739,34.2775,0.4599,,0.4812,0.4989,0.4670,,0.4940,0.5143,0.5066,20.002,21.1983,35.9824,20.311,22.6949,36.0739,36.0282,0.0321,,,, ,, , ,26.8551,,26.8519,,0.7109,83.7170,,,,1.6530E+03,,1.0000E-12,,6.9469,6.9510,0.9402,126.416,6.778,6.884,,,,,,,,,,,,
CalCOFI,2101RL,029,,2101_029u,22-Jan-2021 21:15:08,22-Jan-2021 13:15:08,33.41768,-117.90288,090.0 030.0,090.0,030.0,483.000,487.019,,7.0009,,7.0064,,7.0037,34.2752,,34.2810,34.2714,,34.2734,34.2772,0.4597,,0.4810,0.4987,0.4615,,0.4882,0.5086,0.5037,19.993,21.1889,35.9755,20.071,22.6849,35.8882,35.9319,0.0319,,,, ,, , ,26.8540,,26.8502,,0.7122,83.6898,,,,1.5619E+03,,1.0000E-12,,6.9549,6.9603,0.9402,126.515,6.777,6.804,,,,,,,,,,,,
CalCOFI,2101RL,029,,2101_029u,22-Jan-2021 21:15:09,22-Jan-2021 13:15:09,33.41767,-117.90288,090.0 030.0,090.0,030.0,482.000,486.010,,7.0064,,7.0100,,7.0082,34.2749,,34.2807,34.2713,,34.2733,34.2770,0.4634,,0.4849,0.5025,0.4638,,0.4906,0.5109,0.5067,20.153,21.3564,36.0971,20.170,22.8629,35.9648,36.0310,0.0320,,,, ,, , ,26.8530,,26.8497,,0.7116,83.7018,,,,1.5117E+03,,1.0000E-12,,6.9605,6.9640,0.9402,126.598,6.832,6.838,,,,,,,,,,,,
CalCOFI,2101RL,029,,2101_029u,22-Jan-2021 21:15:10,22-Jan-2021 13:15:10,33.41766,-117.90288,090.0 030.0,090.0,030.0,481.000,485.000,,7.0104,,7.0159,,7.0132,34.2744,,34.2802,34.2709,,34.2729,34.2766,0.4660,,0.4876,0.5052,0.4712,,0.4985,0.5186,0.5119,20.268,21.4767,36.1845,20.491,22.9907,36.2132,36.1989,0.0326,,,, ,, , ,26.8520,,26.8486,,0.7119,83.6969,,,,1.5218E+03,,1.0000E-12,,6.9645,6.9700,0.9402,126.678,6.872,6.948,,,,,,,,,,,,
CalCOFI,2101RL,029,,2101_029u,22-Jan-2021 21:15:11,22-Jan-2021 13:15:11,33.41766,-117.90288,090.0 030.0,090.0,030.0,480.000,483.991,,7.0143,,7.0183,,7.0163,34.2745,,34.2803,34.2709,,34.2729,34.2766,0.4654,,0.4870,0.5046,0.4705,,0.4977,0.5179,0.5113,20.242,21.4495,36.1648,20.462,22.9618,36.1908,36.1778,0.0327,,,, ,, , ,26.8516,,26.8482,,0.7115,83.7034,,,,1.5574E+03,,1.0000E-12,,6.9685,6.9725,0.9402,126.714,6.863,6.939,,,,,,,,,,,,
CalCOFI,2101RL,029,,2101_029u,22-Jan-2021 21:15:12,22-Jan-2021 13:15:12,33.41766,-117.90288,090.0 030.0,090.0,030.0,479.000,482.981,,7.0178,,7.0204,,7.0191,34.2742,,34.2800,34.2706,,34.2726,34.2763,0.4695,,0.4913,0.5087,0.4748,,0.5023,0.5223,0.5155,20.420,21.6359,36.3001,20.651,23.1598,36.3371,36.3186,0.0328,,,, ,, , ,26.8508,,26.8476,,0.7118,83.6989,,,,1.5730E+03,,1.0000E-12,,6.9721,6.9747,0.9402,126.771,6.924,7.003,,,,,,,,,,,,
CalCOFI,2101RL,029,,2101_029u,22-Jan-2021 21:15:13,22-Jan-2021 13:15:13,33.41766,-117.90288,090.0 030.0,090.0,030.0,478.000,481.972,,7.0239,,7.0281,,7.0260,34.2740,,34.2798,34.2704,,34.2724,34.2761,0.4722,,0.4941,0.5115,0.4699,,0.4971,0.5173,0.5144,20.538,21.7594,36.3897,20.439,23.2910,36.1730,36.2814,0.0328,,,, ,, , ,26.8498,,26.8464,,0.7116,83.7033,,,,1.5628E+03,,1.0000E-12,,6.9783,6.9825,0.9402,126.856,6.965,6.932,,,,,,,,,,,,
CalCOFI,2101RL,029,,2101_029u,22-Jan-2021 21:15:14,22-Jan-2021 13:15:14,33.41766,-117.90288,090.0 030.0,090.0,030.0,477.000,480.962,,7.0345,,7.0420,,7.0383,34.2735,,34.2793,34.2698,,34.2718,34.2756,0.4760,,0.4981,0.5154,0.4791,,0.5069,0.5268,0.5211,20.703,21.9321,36.5152,20.839,23.4745,36.4826,36.4989,0.0330,,,, ,, , ,26.8480,,26.8441,,0.7111,83.7122,,,,1.5468E+03,,1.0000E-12,,6.9889,6.9964,0.9402,127.025,7.023,7.070,,,,,,,,,,,,
CalCOFI,2101RL,029,,2101_029u,22-Jan-2021 21:15:15,22-Jan-2021 13:15:15,33.41766,-117.90288,090.0 030.0,090.0,030.0,476.000,479.953,,7.0466,,7.0508,,7.0487,34.2727,,34.2785,34.2692,,34.2712,34.2749,0.4783,,0.5005,0.5177,0.4789,,0.5066,0.5266,0.5222,20.803,22.0368,36.5912,20.829,23.5857,36.4748,36.5330,0.0323,,,, ,, , ,26.8457,,26.8423,,0.7109,83.7173,,,,1.5286E+03,,1.0000E-12,,7.0011,7.0053,0.9402,127.239,7.059,7.068,,,,,,,,,,,,
CalCOFI,2101RL,029,,2101_029u,22-Jan-2021 21:15:16,22-Jan-2021 13:15:16,33.41766,-117.90287,090.0 030.0,090.0,030.0,475.000,478.944,,7.0558,,7.0602,,7.0580,34.2724,,34.2782,34.2688,,34.2708,34.2745,0.4824,,0.5048,0.5219,0.4814,,0.5093,0.5291,0.5255,20.980,22.2221,36.7257,20.939,23.7825,36.5599,36.6428,0.0324,,,, ,, , ,26.8442,,26.8407,,0.7103,83.7292,,,,1.5096E+03,,1.0000E-12,,7.0104,7.0148,0.9402,127.374,7.120,7.107,,,,,,,,,,,,
CalCOFI,2101RL,029,,2101_029u,22-Jan-2021 21:15:17,22-Jan-2021 13:15:17,33.41766,-117.90286,090.0 030.0,090.0,030.0,474.000,477.934,,7.0610,,7.0679,,7.0645,34.2722,,34.2780,34.2685,,34.2705,34.2743,0.4837,,0.5061,0.5232,0.4864,,0.5146,0.5343,0.5288,21.038,22.2828,36.7698,21.154,23.8470,36.7263,36.7481,0.0315,,,, ,, , ,26.8433,,26.8394,,0.7100,83.7359,,,,1.5038E+03,,1.0000E-12,,7.0156,7.0225,0.9402,127.446,7.140,7.181,,,,,,,,,,,,
CalCOFI,2101RL,029,,2101_029u,22-Jan-2021 21:15:18,22-Jan-2021 13:15:18,33.41766,-117.90286,090.0 030.0,090.0,030.0,473.000,476.925,,7.0690,,7.0737,,7.0714,34.2717,,34.2775,34.2681,,34.2701,34.2738,0.4879,,0.5105,0.5275,0.4821,,0.5100,0.5299,0.5287,21.220,22.4733,36.9081,20.969,24.0494,36.5832,36.7457,0.0323,,,, ,, , ,26.8418,,26.8382,,0.7100,83.7358,,,,1.5086E+03,,1.0000E-12,,7.0237,7.0285,0.9402,127.578,7.204,7.119,,,,,,,,,,,,
CalCOFI,2101RL,029,,2101_029u,22-Jan-2021 21:15:19,22-Jan-2021 13:15:19,33.41766,-117.90286,090.0 030.0,090.0,030.0,472.000,475.915,,7.0746,,7.0814,,7.0780,34.2716,,34.2774,34.2680,,34.2700,34.2737,0.4901,,0.5128,0.5298,0.4928,,0.5214,0.5409,0.5354,21.315,22.5727,36.9803,21.434,24.1550,36.9430,36.9617,0.0317,,,, ,, , ,26.8409,,26.8371,,0.7095,83.7462,,,,1.5365E+03,,1.0000E-12,,7.0293,7.0361,0.9402,127.652,7.237,7.278,,,,,,,,,,,,
CalCOFI,2101RL,029,,2101_029u,22-Jan-2021 21:15:19,22-Jan-2021 13:15:19,33.41764,-117.90286,090.0 030.0,090.0,030.0,471.000,474.906,,7.0840,,7.0914,,7.0877,34.2714,,34.2772,34.2679,,34.2699,34.2736,0.4929,,0.5158,0.5326,0.4947,,0.5234,0.5429,0.5378,21.438,22.7015,37.0738,21.515,24.2918,37.0057,37.0398,0.0320,,,, ,, , ,26.8395,,26.8357,,0.7094,83.7476,,,,1.5907E+03,,1.0000E-12,,7.0388,7.0462,0.9402,127.783,7.280,7.307,,,,,,,,,,,,
CalCOFI,2101RL,029,,2101_029u,22-Jan-2021 21:15:20,22-Jan-2021 13:15:20,33.41764,-117.90286,090.0 030.0,090.0,030.0,470.000,473.896,,7.0986,,7.1050,,7.1018,34.2706,,34.2764,34.2671,,34.2691,34.2728,0.4938,,0.5167,0.5336,0.4967,,0.5255,0.5450,0.5393,21.478,22.7434,37.1042,21.601,24.3363,37.0723,37.0883,0.0326,,,, ,, , ,26.8368,,26.8332,,0.7096,83.7441,,,,1.6737E+03,,1.0000E-12,,7.0535,7.0599,0.9402,128.037,7.296,7.339,,,,,,,,,,,,
CalCOFI,2101RL,029,,2101_029u,22-Jan-2021 21:15:21,22-Jan-2021 13:15:21,33.41764,-117.90286,090.0 030.0,090.0,030.0,469.000,472.887,,7.1010,,7.1072,,7.1041,34.2708,,34.2766,34.2670,,34.2690,34.2728,0.4915,,0.5143,0.5312,0.4975,,0.5264,0.5458,0.5385,21.377,22.6376,37.0274,21.638,24.2240,37.1009,37.0642,0.0319,,,, ,, , ,26.8366,,26.8327,,0.7100,83.7358,,,,1.7619E+03,,1.0000E-12,,7.0560,7.0622,0.9402,128.037,7.263,7.352,,,,,,,,,,,,
CalCOFI,2101RL,029,,2101_029u,22-Jan-2021 21:15:22,22-Jan-2021 13:15:22,33.41764,-117.90285,090.0 030.0,090.0,030.0,468.000,471.877,,7.1061,,7.1092,,7.1077,34.2704,,34.2762,34.2668,,34.2688,34.2725,0.4943,,0.5172,0.5341,0.4905,,0.5190,0.5386,0.5364,21.497,22.7633,37.1186,21.334,24.3574,36.8656,36.9921,0.0330,,,, ,, , ,26.8355,,26.8323,,0.7099,83.7378,,,,1.8420E+03,,1.0000E-12,,7.0612,7.0643,0.9402,128.128,7.304,7.249,,,,,,,,,,,,
CalCOFI,2101RL,029,,2101_029u,22-Jan-2021 21:15:23,22-Jan-2021 13:15:23,33.41764,-117.90284,090.0 030.0,090.0,030.0,467.000,470.868,,7.1088,,7.1125,,7.1107,34.2702,,34.2760,34.2668,,34.2688,34.2724,0.4968,,0.5199,0.5366,0.4989,,0.5279,0.5472,0.5419,21.607,22.8784,37.2022,21.699,24.4797,37.1481,37.1752,0.0316,,,, ,, , ,26.8350,,26.8318,,0.7101,83.7326,,,,1.8581E+03,,1.0000E-12,,7.0640,7.0677,0.9402,128.162,7.342,7.373,,,,,,,,,,,,
CalCOFI,2101RL,029,,2101_029u,22-Jan-2021 21:15:24,22-Jan-2021 13:15:24,33.41764,-117.90284,090.0 030.0,090.0,030.0,466.000,469.858,,7.1120,,7.1173,,7.1147,34.2701,,34.2759,34.2665,,34.2685,34.2722,0.4960,,0.5190,0.5358,0.5028,,0.5320,0.5513,0.5436,21.571,22.8407,37.1749,21.869,24.4397,37.2797,37.2273,0.0326,,,, ,, , ,26.8345,,26.8309,,0.7101,83.7337,,,,1.7787E+03,,1.0000E-12,,7.0672,7.0726,0.9402,128.202,7.330,7.432,,,,,,,,,,,,
CalCOFI,2101RL,029,,2101_029u,22-Jan-2021 21:15:25,22-Jan-2021 13:15:25,33.41764,-117.90284,090.0 030.0,090.0,030.0,465.000,468.849,,7.1163,,7.1199,,7.1181,34.2698,,34.2756,34.2664,,34.2684,34.2720,0.5009,,0.5241,0.5408,0.4943,,0.5230,0.5425,0.5417,21.787,23.0668,37.3391,21.501,24.6799,36.9949,37.1670,0.0327,,,, ,, , ,26.8336,,26.8304,,0.7100,83.7358,,,,1.6413E+03,,1.0000E-12,,7.0716,7.0752,0.9402,128.267,7.404,7.307,,,,,,,,,,,,